Date,TemperatureHighF,TemperatureAvgF,TemperatureLowF,DewpointHighF,DewpointAvgF,DewpointLowF,HumidityHigh,HumidityAvg,HumidityLow,PressureMaxIn,PressureMinIn,WindSpeedMaxMPH,WindSpeedAvgMPH,GustSpeedMaxMPH,PrecipitationSumIn
2013-1-1,61,52,46,45,39,30,80,63,44,30.22,30.08,0,0,12,0.00
2013-1-2,65,55,47,36,30,24,55,40,25,30.12,30.01,7,0,9,0.00
2013-1-3,69,55,44,36,29,20,58,40,20,30.15,30.03,2,0,8,0.00
2013-1-4,63,53,46,40,32,25,73,46,25,30.26,30.15,6,0,8,0.00
2013-1-5,62,52,43,47,35,28,76,52,39,30.27,30.16,0,0,9,0.00
2013-1-6,56,51,48,49,46,44,91,82,66,30.19,30.00,14,1,22,0.10
2013-1-7,66,55,46,44,37,30,86,54,28,30.08,29.95,12,0,13,0.00
2013-1-8,66,55,47,54,45,35,80,69,61,30.09,30.00,4,0,7,0.00
2013-1-9,64,55,49,53,46,40,85,73,50,30.12,29.99,0,0,6,0.00
2013-1-10,56,52,46,50,41,30,90,67,51,30.09,29.92,14,2,21,0.02
2013-1-11,56,48,43,34,27,22,58,45,34,30.18,30.05,9,1,15,0.00
2013-1-12,55,47,42,37,28,24,68,47,34,30.15,30.05,8,0,10,0.00
2013-1-13,54,47,40,36,30,25,64,52,33,30.16,30.03,11,1,13,0.00
2013-1-14,53,46,40,33,20,12,51,36,24,30.31,30.11,3,0,12,0.00
2013-1-15,60,49,40,34,24,17,60,39,21,30.44,30.30,6,0,10,0.00
2013-1-16,68,54,43,44,34,28,66,49,27,30.33,30.10,6,0,10,0.00
2013-1-17,77,63,50,32,27,23,42,27,17,30.16,30.03,5,0,7,0.00
2013-1-18,77,64,56,39,28,22,38,26,17,30.12,30.03,5,0,8,0.00
2013-1-19,78,65,56,29,25,21,33,23,13,30.17,30.06,3,0,6,0.00
2013-1-20,78,64,56,35,22,15,39,21,11,30.12,29.98,5,0,23,0.00
2013-1-21,79,65,57,25,20,15,24,18,11,30.08,29.97,6,0,8,0.00
2013-1-22,76,63,55,37,21,13,31,21,9,30.08,29.99,2,0,5,0.00
2013-1-23,69,62,58,53,35,22,81,40,20,30.12,29.99,6,0,8,0.06
2013-1-24,64,58,54,58,53,50,93,84,74,30.19,30.08,2,0,7,0.74
2013-1-25,63,60,58,60,57,55,96,90,85,30.10,29.93,0,0,7,0.14
2013-1-26,65,59,55,60,56,53,97,92,76,29.98,29.88,5,0,11,0.14
2013-1-27,57,54,51,54,48,32,96,81,48,30.01,29.95,14,3,18,0.02
2013-1-28,58,52,48,44,34,30,70,50,39,30.16,30.01,11,4,18,0.00
2013-1-29,58,52,46,45,39,31,81,63,47,30.22,30.14,8,1,10,0.00
2013-1-30,67,55,46,47,42,38,83,65,37,30.32,30.19,7,0,12,0.00
2013-1-31,75,59,48,50,44,39,72,59,35,30.22,30.07,5,0,7,0.00
2013-2-1,70,61,51,52,45,41,72,58,38,30.14,30.08,5,0,11,0.00
2013-2-2,71,64,57,52,46,43,64,52,40,30.17,30.08,7,0,15,0.00
2013-2-3,73,64,55,54,48,45,74,58,38,30.12,29.97,8,0,15,0.00
2013-2-4,65,57,53,56,52,47,93,82,70,30.08,29.95,7,0,10,0.00
2013-2-5,56,54,52,52,50,48,90,86,83,30.09,29.98,6,0,9,0.00
2013-2-6,60,54,50,53,48,45,87,80,72,30.09,29.98,10,1,15,0.00
2013-2-7,56,52,47,51,47,44,92,83,72,30.12,29.98,10,1,13,0.00
2013-2-8,53,48,44,46,42,39,87,77,68,29.99,29.87,16,4,18,0.27
2013-2-9,56,48,40,46,40,36,88,77,60,30.08,29.92,12,1,15,0.02
2013-2-10,54,50,45,49,43,41,87,78,65,30.08,30.00,7,1,11,0.00
2013-2-11,57,51,44,48,43,39,85,75,64,30.22,30.04,14,2,18,0.00
2013-2-12,60,52,44,48,41,35,81,66,50,30.33,30.22,10,1,15,0.00
2013-2-13,66,54,44,50,42,37,81,65,42,30.24,30.11,8,0,11,0.00
2013-2-14,72,57,46,55,48,42,88,73,51,30.19,30.04,5,0,8,0.00
2013-2-15,79,66,54,40,34,27,58,31,19,30.17,30.09,5,0,9,0.00
2013-2-16,78,67,59,31,24,18,29,21,11,30.13,29.94,10,1,13,0.00
2013-2-17,64,56,50,53,46,26,85,69,29,30.00,29.91,7,1,11,0.00
2013-2-18,58,54,52,49,46,44,79,74,64,30.05,29.94,8,2,13,0.00
2013-2-19,55,51,47,47,44,40,90,76,65,29.97,29.70,15,5,23,0.14
2013-2-20,56,50,43,44,36,31,76,60,45,29.98,29.69,19,6,23,0.00
2013-2-21,59,52,44,47,40,33,83,66,53,30.07,29.96,10,2,14,0.00
2013-2-22,61,53,45,48,40,33,77,61,50,30.19,30.07,9,1,16,0.00
2013-2-23,61,53,44,50,43,33,84,71,57,30.14,29.91,14,1,18,0.00
2013-2-24,66,56,47,46,31,12,90,45,15,30.18,29.97,10,2,14,0.00
2013-2-25,65,55,46,47,37,24,71,53,21,30.20,30.05,13,2,22,0.00
2013-2-26,68,56,45,51,44,38,83,65,42,30.09,29.97,9,1,11,0.00
2013-2-27,72,61,52,40,29,17,51,33,13,30.24,30.09,13,2,21,0.00
2013-2-28,76,63,52,30,26,17,39,26,12,30.29,30.21,12,1,15,0.00
2013-3-1,84,69,56,34,28,25,42,24,12,30.27,30.12,10,1,11,0.00
2013-3-2,81,69,59,40,31,22,45,26,14,30.18,30.05,10,1,16,0.00
2013-3-3,64,58,53,54,49,38,92,73,45,30.08,29.95,16,3,18,0.00
2013-3-4,63,56,51,52,50,48,91,81,67,30.08,30.00,10,2,14,0.00
2013-3-5,59,54,51,53,50,44,91,85,77,30.11,30.03,15,3,17,0.00
2013-3-6,59,54,47,51,45,41,81,72,60,30.14,30.00,11,2,17,0.00
2013-3-7,58,55,52,51,49,45,91,80,65,30.00,29.82,8,2,12,0.06
2013-3-8,55,51,47,50,46,42,90,81,68,30.00,29.78,14,4,22,0.59
2013-3-9,61,54,48,49,45,40,87,74,48,30.19,30.00,12,3,18,0.00
2013-3-10,70,59,48,52,42,29,90,59,26,30.24,30.11,14,2,22,0.00
2013-3-11,73,60,50,54,48,41,81,65,45,30.16,30.02,6,1,9,0.00
2013-3-12,76,61,50,55,49,42,78,66,44,30.07,29.98,6,1,8,0.00
2013-3-13,80,64,52,57,50,44,78,62,39,30.10,29.99,7,1,8,0.00
2013-3-14,78,64,53,59,53,49,90,69,48,30.07,29.98,6,0,7,0.00
2013-3-15,69,60,55,58,53,50,92,79,66,30.02,29.92,6,1,10,0.00
2013-3-16,63,56,53,54,51,49,91,83,72,29.97,29.87,12,1,17,0.00
2013-3-17,62,57,53,54,52,50,91,82,70,30.00,29.91,10,2,15,0.00
2013-3-18,63,57,54,54,51,49,86,80,67,30.07,29.96,8,2,15,0.00
2013-3-19,62,56,51,54,51,48,92,84,72,30.10,30.02,10,2,18,0.00
2013-3-20,70,60,52,57,52,46,91,76,50,30.08,29.94,11,1,16,0.00
2013-3-21,66,60,56,58,53,49,90,80,61,29.94,29.79,16,2,16,0.00
2013-3-22,64,58,53,54,52,46,91,78,66,29.89,29.79,12,2,20,0.00
2013-3-23,67,59,56,57,52,49,91,78,63,29.99,29.89,14,2,17,0.00
2013-3-24,70,61,53,57,53,48,88,75,59,30.00,29.87,10,1,12,0.00
2013-3-25,71,61,53,57,53,50,91,77,50,29.97,29.87,6,1,7,0.00
2013-3-26,66,59,53,56,52,49,87,78,66,29.96,29.88,12,2,15,0.00
2013-3-27,64,59,55,55,52,50,87,78,68,30.02,29.91,8,2,12,0.00
2013-3-28,70,61,56,59,54,50,86,78,61,30.06,29.98,14,1,16,0.00
2013-3-29,71,60,55,60,54,51,92,82,61,30.10,30.01,7,1,14,0.00
2013-3-30,67,60,53,57,52,44,94,78,44,30.12,30.03,12,2,18,0.00
2013-3-31,64,59,55,59,55,52,92,86,74,30.12,30.04,17,2,18,0.00
2013-4-1,62,57,54,54,52,49,90,82,73,30.16,30.05,19,4,22,0.00
2013-4-2,70,59,52,56,52,48,92,78,57,30.08,29.97,15,2,15,0.00
2013-4-3,74,61,55,60,55,50,92,80,58,30.07,29.97,10,2,16,0.00
2013-4-4,75,61,55,59,54,51,91,80,54,30.09,29.98,11,2,17,0.00
2013-4-5,64,59,56,57,55,54,93,87,77,30.08,29.98,16,3,22,0.00
2013-4-6,65,60,55,57,55,52,93,84,68,30.07,29.94,16,2,19,0.00
2013-4-7,65,60,56,57,55,53,94,84,72,29.95,29.79,11,3,15,0.00
2013-4-8,64,58,53,55,47,40,90,67,48,29.80,29.66,24,6,28,0.00
2013-4-9,72,63,56,40,35,30,48,37,22,29.98,29.80,21,5,25,0.00
2013-4-10,75,64,52,52,41,28,76,47,18,30.08,29.94,16,3,25,0.00
2013-4-11,69,61,55,56,51,44,81,71,54,29.98,29.76,20,2,21,0.00
2013-4-12,66,60,57,55,52,51,83,75,66,29.88,29.76,13,3,17,0.00
2013-4-13,61,57,54,55,53,51,92,85,78,29.90,29.83,6,1,10,0.00
2013-4-14,61,57,54,55,52,51,90,83,74,29.87,29.81,8,2,13,0.00
2013-4-15,61,57,54,53,52,47,92,83,72,29.89,29.82,13,3,20,0.00
2013-4-16,62,56,49,48,43,36,79,62,44,29.98,29.85,20,5,27,0.00
2013-4-17,69,61,53,38,31,26,54,34,22,30.09,29.98,16,5,26,0.00
2013-4-18,75,65,55,33,25,17,41,23,12,30.19,30.09,18,4,24,0.00
2013-4-19,81,68,56,46,28,10,53,26,7,30.14,29.94,15,2,20,0.00
2013-4-20,82,68,56,57,51,44,83,57,34,29.97,29.86,0,0,0,0.00
2013-4-21,72,64,58,58,55,52,86,75,55,29.99,29.93,0,0,0,0.00
2013-4-22,65,60,57,55,53,51,83,77,68,30.00,29.87,6,0,10,0.00
2013-4-23,67,60,57,55,52,50,84,74,60,29.96,29.84,14,1,18,0.00
2013-4-24,64,59,57,54,53,52,90,81,67,29.97,29.88,9,2,14,0.00
2013-4-25,68,62,58,53,51,49,81,69,53,30.09,29.94,15,3,18,0.00
2013-4-26,71,63,55,59,52,48,80,68,50,30.13,30.07,13,2,19,0.00
2013-4-27,78,65,56,60,55,50,86,72,52,30.13,29.97,9,1,14,0.00
2013-4-28,76,63,58,61,56,53,87,78,59,30.00,29.84,7,2,14,0.00
2013-4-29,69,60,56,59,55,53,93,83,66,29.90,29.77,9,2,12,0.00
2013-4-30,64,60,58,56,54,52,84,80,73,29.88,29.81,10,3,12,0.00
2013-5-1,70,64,58,59,55,53,87,75,60,30.08,29.88,14,2,18,0.00
2013-5-2,92,72,56,58,50,37,87,53,17,30.10,29.96,8,1,14,0.00
2013-5-3,90,77,64,54,33,18,72,25,8,29.99,29.75,11,2,16,0.00
2013-5-4,68,62,58,57,55,52,83,76,67,29.83,29.74,17,4,19,0.00
2013-5-5,63,60,58,55,52,50,87,77,70,29.93,29.81,13,4,16,0.09
2013-5-6,64,60,57,59,56,54,96,88,71,30.00,29.87,9,2,13,0.10
2013-5-7,66,61,56,56,53,51,91,77,57,30.05,29.96,12,2,20,0.00
2013-5-8,66,61,58,56,54,51,90,76,60,30.08,30.03,15,4,22,0.00
2013-5-9,66,61,56,57,55,52,87,79,70,30.07,30.00,17,3,20,0.00
2013-5-10,78,66,57,63,57,52,88,75,55,30.08,29.98,10,2,15,0.00
2013-5-11,83,69,61,66,60,57,88,75,55,30.06,29.96,6,2,10,0.00
2013-5-12,90,74,61,66,61,56,91,66,42,30.03,29.88,6,1,8,0.00
2013-5-13,97,82,67,65,52,26,77,43,12,29.95,29.83,20,3,21,0.00
2013-5-14,77,68,60,59,54,48,83,62,37,29.98,29.88,13,2,19,0.00
2013-5-15,70,63,59,58,55,53,86,76,64,30.03,29.93,13,2,16,0.00
2013-5-16,67,62,59,57,56,53,87,79,68,29.97,29.88,11,2,16,0.00
2013-5-17,67,63,59,59,56,53,87,79,66,29.98,29.88,15,3,19,0.00
2013-5-18,70,64,59,59,56,52,86,74,63,30.03,29.95,14,3,17,0.00
2013-5-19,72,65,59,61,56,51,85,73,63,29.97,29.85,16,2,18,0.00
2013-5-20,80,69,62,64,60,58,86,75,58,29.94,29.85,7,2,12,0.00
2013-5-21,71,66,63,62,59,57,87,79,70,29.93,29.82,13,3,17,0.00
2013-5-22,69,64,60,59,56,54,84,77,66,29.83,29.76,14,3,17,0.00
2013-5-23,68,63,58,56,54,51,81,73,61,29.91,29.80,17,3,18,0.00
2013-5-24,69,63,58,58,54,49,83,72,63,29.98,29.90,9,2,14,0.00
2013-5-25,68,63,58,57,54,50,86,73,64,30.02,29.95,16,3,17,0.00
2013-5-26,67,62,57,57,54,51,86,76,64,30.04,29.96,10,2,15,0.00
2013-5-27,67,63,58,60,56,52,86,79,71,29.98,29.84,18,3,22,0.00
2013-5-28,72,66,61,62,59,55,87,78,61,29.87,29.71,14,3,21,0.00
2013-5-29,83,68,62,65,60,56,88,76,42,29.80,29.69,14,2,17,0.00
2013-5-30,72,67,62,63,60,58,87,80,70,29.87,29.75,13,3,16,0.00
2013-5-31,76,68,63,64,60,58,85,76,57,29.90,29.80,11,2,17,0.00
2013-6-1,80,69,63,67,62,59,88,79,63,29.85,29.74,10,2,14,0.00
2013-6-2,67,64,63,60,59,56,88,82,77,29.82,29.76,9,2,13,0.00
2013-6-3,69,64,63,59,57,56,81,77,68,29.88,29.78,12,3,14,0.00
2013-6-4,68,63,60,59,57,56,90,81,71,29.95,29.87,12,3,19,0.00
2013-6-5,68,62,59,58,56,55,90,81,71,29.99,29.90,12,3,19,0.00
2013-6-6,67,61,58,59,57,55,92,86,76,29.94,29.86,15,3,20,0.00
2013-6-7,67,61,59,60,57,55,91,86,76,29.90,29.77,16,3,19,0.00
2013-6-8,67,62,60,62,58,57,90,86,79,29.90,29.77,9,2,10,0.00
2013-6-9,66,62,60,62,57,56,90,84,74,29.92,29.86,9,1,12,0.00
2013-6-10,71,64,59,59,57,53,85,77,63,29.95,29.87,11,2,16,0.00
2013-6-11,79,69,59,64,60,55,91,75,59,29.92,29.86,8,1,11,0.00
2013-6-12,66,63,61,61,59,57,92,87,81,30.01,29.90,18,3,18,0.00
2013-6-13,72,65,62,61,58,57,87,79,67,30.00,29.87,9,2,14,0.00
2013-6-14,69,64,61,60,58,56,90,81,70,29.92,29.84,9,2,13,0.00
2013-6-15,68,64,61,58,56,55,84,77,66,29.96,29.87,13,3,20,0.00
2013-6-16,73,65,60,60,58,54,86,76,61,30.02,29.92,16,2,19,0.00
2013-6-17,77,67,61,64,59,55,88,76,60,29.98,29.86,10,2,15,0.00
2013-6-18,74,67,63,63,60,58,88,78,66,29.91,29.82,12,2,16,0.00
2013-6-19,72,67,62,61,59,56,88,77,65,29.87,29.77,15,3,19,0.00
2013-6-20,77,68,61,62,58,47,92,72,40,29.86,29.78,12,2,17,0.00
2013-6-21,77,68,62,65,60,56,86,74,63,29.90,29.82,9,1,15,0.00
2013-6-22,77,68,62,62,60,56,86,76,60,29.91,29.80,8,2,14,0.00
2013-6-23,69,64,61,62,58,57,88,81,72,29.88,29.79,15,3,20,0.00
2013-6-24,71,66,61,62,59,58,90,79,65,29.93,29.81,10,2,16,0.00
2013-6-25,76,67,63,65,61,59,90,81,67,29.99,29.88,13,2,16,0.00
2013-6-26,85,72,62,68,63,59,90,74,53,29.97,29.88,8,1,12,0.00
2013-6-27,88,74,64,69,64,61,91,72,52,30.02,29.94,7,1,10,0.00
2013-6-28,91,76,65,69,64,60,90,68,46,29.97,29.85,7,1,9,0.00
2013-6-29,91,78,68,69,65,61,81,64,45,29.87,29.72,6,1,8,0.00
2013-6-30,81,74,68,68,65,62,85,75,60,29.80,29.69,10,2,17,0.00
2013-7-1,87,74,67,70,65,59,90,76,39,29.88,29.78,7,1,13,0.00
2013-7-2,75,71,67,67,64,62,86,80,73,30.00,29.85,12,1,17,0.00
2013-7-3,82,72,65,67,64,61,90,76,58,29.92,29.79,6,0,11,0.00
2013-7-4,83,70,64,67,62,60,90,78,57,29.82,29.73,8,1,11,0.00
2013-7-5,76,69,65,64,62,61,87,78,64,29.83,29.75,8,1,13,0.00
2013-7-6,76,69,65,65,63,61,88,80,67,29.82,29.73,11,1,19,0.00
2013-7-7,83,72,65,67,63,61,88,76,57,29.85,29.75,12,1,14,0.00
2013-7-8,87,74,64,68,63,59,86,70,50,29.91,29.83,7,1,11,0.00
2013-7-9,80,73,66,67,63,59,79,71,60,29.98,29.87,15,1,17,0.00
2013-7-10,75,70,68,68,64,62,85,81,74,29.96,29.88,7,1,9,0.00
2013-7-11,71,69,67,67,65,64,92,88,81,29.96,29.87,6,1,9,0.00
2013-7-12,80,72,66,68,64,61,91,78,57,29.92,29.83,10,1,13,0.00
2013-7-13,84,72,66,66,63,61,85,74,54,29.94,29.83,8,1,13,0.00
2013-7-14,82,72,65,66,63,60,87,73,50,29.92,29.80,10,1,12,0.00
2013-7-15,85,74,67,67,63,57,86,68,47,29.86,29.77,12,1,13,0.00
2013-7-16,84,72,63,64,59,47,83,65,33,29.96,29.84,8,1,12,0.00
2013-7-17,88,74,62,64,59,54,79,60,38,30.00,29.92,11,1,13,0.00
2013-7-18,80,71,64,64,60,55,79,68,58,29.97,29.83,10,1,15,0.00
2013-7-19,76,69,64,65,61,58,84,77,67,29.89,29.80,13,1,14,0.00
2013-7-20,72,67,65,65,62,60,87,83,78,29.87,29.76,9,1,16,0.00
2013-7-21,69,67,64,66,62,61,91,86,81,29.91,29.79,8,1,12,0.00
2013-7-22,78,71,65,67,64,62,93,79,60,29.97,29.89,12,1,15,0.00
2013-7-23,79,71,66,65,62,60,86,75,58,30.01,29.90,13,2,17,0.00
2013-7-24,78,70,64,66,62,60,88,75,63,29.96,29.87,7,1,14,0.00
2013-7-25,77,69,64,64,61,59,87,77,64,30.00,29.91,10,1,14,0.00
2013-7-26,80,70,66,67,63,60,87,77,63,30.07,29.95,6,0,11,0.00
2013-7-27,76,69,65,64,61,59,84,75,65,30.00,29.86,10,1,14,0.00
2013-7-28,68,64,60,62,59,57,91,84,77,29.92,29.86,17,3,22,0.00
2013-7-29,72,66,62,60,58,56,87,76,65,30.02,29.90,15,2,17,0.00
2013-7-30,71,65,61,61,58,56,86,76,66,30.11,30.01,16,2,19,0.00
2013-7-31,69,64,61,60,58,55,88,80,70,30.09,29.98,10,3,16,0.00
2013-8-1,70,65,60,61,58,55,86,79,68,30.01,29.89,15,2,17,0.00
2013-8-2,75,67,63,64,60,57,86,77,59,29.96,29.88,9,2,14,0.00
2013-8-3,74,67,64,63,60,58,85,78,70,29.98,29.90,12,2,17,0.00
2013-8-4,77,67,62,64,60,58,92,79,61,30.00,29.91,12,1,18,0.00
2013-8-5,80,67,61,64,59,56,90,77,58,29.99,29.90,10,1,13,0.00
2013-8-6,75,67,62,62,59,57,88,77,61,30.03,29.95,11,2,15,0.00
2013-8-7,75,66,60,63,58,56,91,78,63,30.07,29.95,15,1,17,0.00
2013-8-8,75,66,59,62,59,55,90,78,63,29.98,29.88,11,2,19,0.00
2013-8-9,70,64,60,62,58,56,88,80,68,29.96,29.89,15,2,20,0.00
2013-8-10,74,66,61,63,59,57,91,79,64,30.02,29.93,14,1,14,0.00
2013-8-11,77,68,62,64,60,57,87,77,61,29.98,29.87,9,1,16,0.00
2013-8-12,78,67,62,65,60,57,90,79,63,29.97,29.87,13,1,15,0.00
2013-8-13,80,68,62,66,61,58,88,79,61,29.97,29.84,6,1,14,0.00
2013-8-14,79,67,63,67,62,59,90,83,63,29.92,29.80,11,1,18,0.00
2013-8-15,81,69,63,66,62,60,92,79,53,29.93,29.86,6,0,10,0.00
2013-8-16,84,72,64,67,63,60,88,74,53,29.94,29.87,0,0,0,0.00
2013-8-17,83,72,64,66,62,59,86,72,54,29.94,29.80,0,0,0,0.00
2013-8-18,73,67,63,64,61,58,88,80,71,29.89,29.81,0,0,0,0.00
2013-8-19,77,68,64,65,62,60,88,81,66,29.94,29.84,0,0,0,0.00
2013-8-20,82,70,63,66,62,58,90,76,57,29.92,29.82,0,0,0,0.00
2013-8-21,86,73,64,65,61,57,86,67,48,29.90,29.81,0,0,0,0.00
2013-8-22,88,75,65,64,59,54,80,59,35,29.91,29.77,0,0,0,0.00
2013-8-23,88,75,65,64,60,56,76,60,40,29.85,29.72,0,0,0,0.00
2013-8-24,82,71,63,64,60,56,84,69,52,29.86,29.74,0,0,0,0.00
2013-8-25,83,71,61,64,60,57,92,72,50,29.90,29.83,0,0,0,0.00
2013-8-26,90,77,65,64,59,53,72,55,39,29.90,29.79,0,0,0,0.00
2013-8-27,88,77,71,66,61,58,77,58,44,29.83,29.75,0,0,0,0.00
2013-8-28,90,79,69,66,61,57,72,56,37,29.87,29.76,0,0,0,0.00
2013-8-29,94,82,70,65,60,56,68,49,33,29.91,29.84,0,0,0,0.00
2013-8-30,91,82,75,71,64,58,60,54,48,29.96,29.87,0,0,0,0.00
2013-8-31,89,82,76,73,68,62,67,62,57,29.95,29.85,10,2,16,0.00
2013-9-1,86,79,74,73,68,63,76,67,61,29.92,29.82,12,2,15,0.00
2013-9-2,88,78,70,72,68,65,86,72,57,29.91,29.78,6,1,9,0.00
2013-9-3,93,81,71,71,67,64,81,64,40,29.88,29.79,9,1,10,0.00
2013-9-4,95,83,72,69,64,59,72,54,31,29.89,29.80,7,1,10,0.00
2013-9-5,95,82,72,67,62,60,70,52,34,29.87,29.79,7,1,9,0.00
2013-9-6,96,82,72,68,62,58,71,52,33,29.85,29.76,6,1,8,0.00
2013-9-7,93,81,72,66,62,59,73,53,35,29.85,29.77,10,1,10,0.00
2013-9-8,83,75,69,66,62,60,73,65,54,29.84,29.74,5,0,9,0.00
2013-9-9,78,70,65,64,61,59,85,73,54,29.80,29.72,10,1,14,0.00
2013-9-10,72,67,64,60,59,58,83,75,65,29.93,29.79,11,2,15,0.00
2013-9-11,72,67,62,63,59,57,85,78,68,29.99,29.89,16,2,19,0.00
2013-9-12,83,71,61,66,62,56,88,72,53,29.92,29.80,5,1,8,0.00
2013-9-13,84,73,64,66,62,57,81,70,53,29.82,29.64,6,0,8,0.00
2013-9-14,85,74,65,67,63,59,83,70,54,29.71,29.61,6,1,6,0.00
2013-9-15,86,74,65,68,63,59,88,69,53,29.76,29.68,6,1,7,0.00
2013-9-16,89,76,67,66,62,58,77,61,45,29.81,29.71,6,1,8,0.00
2013-9-17,73,69,65,64,61,59,85,76,66,29.82,29.71,9,1,15,0.00
2013-9-18,72,68,65,62,60,59,84,76,68,29.81,29.73,11,2,14,0.00
2013-9-19,71,68,63,64,61,58,86,80,72,29.82,29.74,10,1,18,0.00
2013-9-20,69,66,64,62,61,59,87,82,76,29.87,29.80,7,1,9,0.00
2013-9-21,70,66,63,61,59,57,90,79,70,29.90,29.77,15,2,22,0.00
2013-9-22,73,66,60,60,55,49,88,68,45,29.83,29.77,11,2,19,0.00
2013-9-23,89,73,61,56,49,39,68,47,18,29.87,29.78,7,1,14,0.00
2013-9-24,84,73,64,56,51,43,65,47,25,29.91,29.81,11,1,20,0.00
2013-9-25,71,67,63,62,59,51,85,75,55,29.83,29.69,10,2,13,0.00
2013-9-26,71,65,61,58,52,39,80,64,38,29.85,29.71,15,3,26,0.00
2013-9-27,80,69,58,51,40,30,64,39,19,29.97,29.85,15,2,19,0.00
2013-9-28,86,72,61,45,38,30,46,31,17,30.01,29.92,10,1,15,0.00
2013-9-29,84,71,60,58,45,30,58,42,15,30.04,29.94,10,1,14,0.00
2013-9-30,79,68,60,63,56,48,78,66,35,29.97,29.84,14,2,14,0.00
2013-10-1,76,70,66,65,61,54,86,75,50,29.93,29.84,7,1,10,0.00
2013-10-2,73,67,64,66,60,58,87,78,72,29.95,29.86,6,2,13,0.00
2013-10-3,69,65,63,62,60,58,86,82,74,29.91,29.81,14,2,16,0.00
2013-10-4,84,71,61,61,54,31,85,60,21,30.01,29.86,6,1,11,0.00
2013-10-5,88,77,68,49,31,22,48,21,9,30.09,30.00,10,2,15,0.00
2013-10-6,89,76,66,35,26,11,27,18,6,30.06,29.93,10,1,14,0.00
2013-10-7,82,70,63,60,46,34,70,42,24,29.95,29.87,6,1,12,0.00
2013-10-8,69,63,60,57,54,46,81,72,53,29.92,29.81,11,2,17,0.02
2013-10-9,64,59,56,55,51,46,88,74,61,29.81,29.70,11,3,24,0.08
2013-10-10,66,59,52,53,50,46,84,73,59,29.99,29.78,9,1,14,0.00
2013-10-11,69,61,54,57,52,47,81,72,64,30.03,29.92,10,1,15,0.00
2013-10-12,73,63,56,61,55,51,88,78,51,29.96,29.87,10,2,16,0.00
2013-10-13,66,62,58,57,55,52,86,78,66,30.00,29.91,10,1,13,0.00
2013-10-14,81,67,56,62,53,41,87,65,25,30.00,29.86,5,0,7,0.00
2013-10-15,84,71,60,49,43,35,64,39,18,29.95,29.84,10,1,11,0.00
2013-10-16,83,72,65,46,34,21,45,26,12,30.05,29.94,8,2,13,0.00
2013-10-17,78,69,59,55,42,32,55,38,20,30.01,29.89,11,1,17,0.00
2013-10-18,81,68,58,62,54,46,71,61,42,29.99,29.90,5,0,7,0.00
2013-10-19,81,68,58,60,54,48,80,61,40,30.00,29.92,6,0,7,0.00
2013-10-20,71,64,58,60,56,52,88,77,64,29.97,29.87,8,1,14,0.00
2013-10-21,73,64,58,62,57,52,90,77,63,29.97,29.88,5,0,8,0.00
2013-10-22,71,62,56,60,56,52,88,79,66,29.98,29.87,10,1,12,0.00
2013-10-23,63,61,58,57,55,53,88,82,74,29.95,29.89,12,2,17,0.00
2013-10-24,65,62,59,61,55,53,87,79,72,30.03,29.94,12,2,14,0.00
2013-10-25,69,63,58,62,56,52,86,80,68,30.11,29.98,10,1,14,0.00
2013-10-26,71,63,57,64,58,53,92,83,71,30.07,29.94,4,0,6,0.00
2013-10-27,68,61,57,60,56,52,93,84,72,29.95,29.80,14,2,16,0.00
2013-10-28,62,59,56,56,53,50,90,80,66,29.91,29.80,15,3,17,0.02
2013-10-29,63,59,53,59,52,50,93,79,66,29.99,29.91,10,1,16,0.08
2013-10-30,68,59,52,56,51,47,88,75,50,30.05,29.96,9,1,13,0.00
2013-10-31,77,64,54,56,48,43,83,58,32,30.07,29.95,6,0,8,0.00
2013-11-1,83,67,54,50,44,37,73,47,22,30.08,29.91,5,0,10,0.00
2013-11-2,79,66,60,57,45,35,81,49,21,29.96,29.84,13,2,19,0.00
2013-11-3,67,63,60,61,56,53,87,76,64,29.91,29.80,10,1,11,0.00
2013-11-4,66,62,58,60,54,50,86,76,67,29.92,29.78,8,2,14,0.00
2013-11-5,72,62,52,52,43,30,83,55,26,30.12,29.92,7,1,13,0.00
2013-11-6,79,68,58,45,32,24,47,27,17,30.18,30.07,6,1,10,0.00
2013-11-7,83,71,64,43,30,21,44,23,11,30.09,29.97,7,0,7,0.00
2013-11-8,75,64,58,59,50,32,84,63,31,30.02,29.91,7,1,9,0.00
2013-11-9,73,62,57,56,52,42,87,71,38,30.05,29.97,6,0,8,0.00
2013-11-10,76,62,56,60,50,40,81,63,41,30.09,30.00,10,1,17,0.00
2013-11-11,75,62,52,57,49,41,74,62,44,30.10,30.00,4,0,8,0.00
2013-11-12,75,65,57,59,52,43,78,64,45,30.14,30.03,3,0,5,0.00
2013-11-13,89,75,65,47,39,32,44,28,18,30.03,29.86,6,1,10,0.00
2013-11-14,86,75,64,57,39,30,77,30,17,29.90,29.75,8,1,11,0.00
2013-11-15,68,64,59,58,56,52,85,77,67,29.75,29.67,8,2,12,0.00
2013-11-16,66,61,57,60,52,49,86,73,57,29.92,29.74,9,1,12,0.00
2013-11-17,65,60,56,55,52,49,85,76,65,30.07,29.92,7,1,10,0.00
2013-11-18,65,60,54,57,53,50,87,79,65,30.14,30.03,11,2,13,0.00
2013-11-19,65,60,58,59,53,52,87,78,67,30.06,29.93,10,2,13,0.00
2013-11-20,65,61,58,57,55,53,92,83,71,29.96,29.86,10,2,14,0.19
2013-11-21,61,58,55,58,56,52,99,92,86,29.87,29.80,10,2,16,0.32
2013-11-22,62,56,54,53,48,43,91,74,55,29.93,29.81,7,1,10,0.00
2013-11-23,64,57,52,49,46,42,76,66,54,30.06,29.93,9,1,12,0.00
2013-11-24,65,58,51,52,45,42,78,63,48,30.16,30.06,7,1,11,0.00
2013-11-25,69,59,51,52,46,42,78,62,41,30.22,30.12,8,1,14,0.00
2013-11-26,74,61,52,51,46,42,78,58,33,30.16,30.01,6,1,8,0.00
2013-11-27,70,62,56,54,44,38,84,52,34,30.01,29.86,6,1,9,0.00
2013-11-28,66,60,56,58,55,51,88,81,73,30.03,29.87,7,1,11,0.00
2013-11-29,61,58,56,57,54,51,92,86,79,30.16,30.03,4,0,11,0.35
2013-11-30,73,61,54,55,50,48,85,68,42,30.16,30.05,6,0,7,0.00
2013-12-1,78,65,57,50,44,38,73,48,26,30.19,30.07,6,0,8,0.00
2013-12-2,71,63,56,51,41,35,60,45,29,30.08,29.88,4,0,8,0.00
2013-12-3,64,57,52,55,50,40,84,76,59,29.88,29.73,9,2,15,0.00
2013-12-4,59,53,49,44,34,26,70,49,35,29.94,29.76,11,2,15,0.00
2013-12-5,58,52,48,41,38,35,67,59,46,30.08,29.92,8,1,11,0.00
2013-12-6,59,51,46,47,40,35,76,65,54,30.16,30.08,10,1,12,0.00
2013-12-7,56,51,46,51,41,31,93,71,52,30.10,29.98,13,2,22,0.29
2013-12-8,54,48,43,41,34,26,68,59,48,30.18,30.08,6,1,9,0.00
2013-12-9,60,50,42,36,28,14,73,46,22,30.26,30.16,12,1,17,0.00
2013-12-10,66,54,45,30,18,14,34,25,15,30.24,30.06,8,1,11,0.00
2013-12-11,69,58,52,46,27,16,51,31,19,30.14,30.07,7,1,9,0.00
2013-12-12,64,56,48,54,38,23,77,53,28,30.19,30.10,9,1,12,0.00
2013-12-13,64,54,47,53,47,42,88,77,61,30.21,30.11,6,1,8,0.00
2013-12-14,72,60,48,47,34,25,80,43,18,30.26,30.15,8,1,10,0.00
2013-12-15,75,65,54,33,29,25,37,26,19,30.21,30.04,7,1,12,0.00
2013-12-16,80,70,64,45,33,26,34,26,19,30.10,30.02,7,1,19,0.00
2013-12-17,75,68,63,54,41,31,59,38,27,30.10,29.97,6,0,7,0.00
2013-12-18,68,60,54,56,50,44,86,71,47,29.98,29.84,11,2,14,0.00
2013-12-19,57,54,50,49,46,42,83,74,64,29.84,29.69,13,2,20,0.06
2013-12-20,62,53,46,52,46,39,84,76,66,29.93,29.74,6,1,11,0.00
2013-12-21,61,54,49,56,48,45,90,81,73,30.06,29.90,9,1,12,0.00
2013-12-22,65,55,48,54,49,44,88,79,65,30.24,30.06,5,0,10,0.00
2013-12-23,73,60,51,50,43,38,77,55,28,30.29,30.15,8,0,11,0.00
2013-12-24,76,64,57,48,42,37,53,44,33,30.17,30.06,4,0,6,0.00
2013-12-25,80,67,59,37,31,24,45,28,17,30.17,30.08,6,1,10,0.00
2013-12-26,78,66,59,26,21,15,25,18,9,30.14,30.04,8,1,8,0.00
2013-12-27,80,66,58,38,23,16,41,21,11,30.13,30.01,4,1,9,0.00
2013-12-28,66,60,55,59,48,31,84,66,33,30.01,29.90,8,1,10,0.00
2013-12-29,74,60,48,50,35,19,85,47,13,30.11,29.98,5,0,8,0.00
2013-12-30,72,60,50,43,31,22,53,35,24,30.24,30.11,6,0,7,0.00
2013-12-31,68,57,48,55,41,29,71,54,42,30.18,30.06,6,0,10,0.00
2014-1-1,67,57,48,56,47,36,84,70,48,30.11,30.02,6,0,7,0.00
2014-1-2,77,63,56,48,40,31,57,43,28,30.08,29.96,6,0,7,0.00